Westfield, MA

2:05 PM EDT on March 29, 2017 (GMT -0400)
Barnes Municipal

Weather History for KBAF - October, 2012

Change the Weather History Date:

Sunday, October 7, 2012

  Actual Average Record
Temperature  
Mean Temperature 46 °F -  
Max Temperature 55 °F 63 °F 78 °F (1997)
Min Temperature 37 °F 40 °F 26 °F (1999)
Degree Days  
Heating Degree Days 19    
Moisture  
Dew Point 39 °F    
Average Humidity 69    
Maximum Humidity 89    
Minimum Humidity 53    
Precipitation  
Precipitation 0.08 in - - ()
Sea Level Pressure  
Sea Level Pressure 30.05 in    
Wind  
Wind Speed 3 mph (SW)    
Max Wind Speed 8 mph    
Max Gust Speed 20 mph    
Visibility 10 miles    
Events Rain    
Averages and records for this station are not official NWS values.
T = Trace of Precipitation, MM = Missing Value Source: NWS Daily Summary

Daily Weather History Graph

Daily Weather History Graph

Search for Another Location

Airport or City:

Trip Planner

Search our weather history database for the weather conditions in past years. The results will help you decide how hot, cold, wet, or windy it might be!

Date:

Astronomy

Oct. 07, 2012 Rise Set
Actual Time 6:54 AM EDT 6:21 PM EDT
Civil Twilight 6:26 AM EDT 6:49 PM EDT
Nautical Twilight 5:54 AM EDT 7:21 PM EDT
Astronomical Twilight 5:21 AM EDT 7:54 PM EDT
Moon 11:26 PM EDT (10/7) 1:34 PM EDT (10/7)
Length of Visible Light 12h 22m
Length of Day
11h 26m
Waning Gibbous, 56% of the Moon is Illuminated
Oct 7
Waning Gibbous
Oct 8
Last Quarter
Oct 15
New
Oct 21
First Quarter
Oct 29
Full

Hourly Weather History & Observations

Time (EDT) Temp. Windchill Dew Point Humidity Pressure Visibility Wind Dir Wind Speed Gust Speed Precip Events Conditions
12:53 AM 52.0 °F - 35.1 °F 53% 29.97 in 10.0 mi NW 8.1 mph 19.6 mph N/A   Clear
1:53 AM 46.9 °F - 35.1 °F 63% 29.98 in 10.0 mi Calm Calm - N/A   Clear
2:53 AM 48.9 °F - 34.0 °F 56% 29.99 in 10.0 mi NW 5.8 mph - N/A   Clear
3:53 AM 45.0 °F - 35.1 °F 68% 30.01 in 10.0 mi Calm Calm - N/A   Clear
4:53 AM 41.0 °F - 35.1 °F 79% 30.03 in 10.0 mi Calm Calm - N/A   Clear
5:53 AM 41.0 °F - 36.0 °F 82% 30.04 in 10.0 mi Calm Calm - N/A   Clear
6:53 AM 37.9 °F - 35.1 °F 89% 30.06 in 10.0 mi Calm Calm - N/A   Clear
7:53 AM 42.1 °F 40.2 °F 37.9 °F 85% 30.08 in 10.0 mi SE 3.5 mph - N/A   Clear
8:53 AM 48.9 °F - 39.0 °F 69% 30.08 in 10.0 mi Calm Calm - N/A   Clear
9:53 AM 51.1 °F - 37.9 °F 61% 30.08 in 10.0 mi Calm Calm - N/A   Mostly Cloudy
10:53 AM 52.0 °F - 37.0 °F 57% 30.09 in 10.0 mi SW 4.6 mph - N/A   Partly Cloudy
11:53 AM 54.0 °F - 37.0 °F 53% 30.09 in 10.0 mi Calm Calm - N/A   Mostly Cloudy
12:53 PM 54.0 °F - 37.9 °F 55% 30.08 in 10.0 mi Calm Calm - N/A   Overcast
1:53 PM 55.0 °F - 39.0 °F 55% 30.06 in 10.0 mi South 4.6 mph - N/A   Mostly Cloudy
2:53 PM 55.0 °F - 39.9 °F 57% 30.05 in 10.0 mi South 5.8 mph - N/A   Overcast
3:53 PM 55.9 °F - 39.9 °F 55% 30.04 in 10.0 mi South 4.6 mph - N/A   Clear
4:53 PM 54.0 °F - 41.0 °F 62% 30.03 in 10.0 mi South 4.6 mph - N/A   Overcast
5:53 PM 52.0 °F - 43.0 °F 71% 30.02 in 10.0 mi Calm Calm - N/A   Overcast
6:53 PM 51.1 °F - 43.0 °F 74% 30.00 in 10.0 mi ESE 3.5 mph - N/A   Overcast
7:53 PM 51.1 °F - 44.1 °F 77% 30.04 in 10.0 mi SW 5.8 mph - 0.00 in Rain Light Rain
8:53 PM 50.0 °F - 45.0 °F 83% 30.07 in 10.0 mi WNW 4.6 mph - 0.02 in Rain Light Rain
9:53 PM 48.0 °F - 43.0 °F 83% 30.09 in 10.0 mi NW 4.6 mph - 0.01 in Rain Light Rain
10:53 PM 46.9 °F - 43.0 °F 86% 30.09 in 10.0 mi Calm Calm - 0.04 in Rain Light Rain
11:53 PM 46.9 °F - 42.1 °F 83% 30.09 in 10.0 mi Calm Calm - 0.01 in Rain Light Rain